Home   Weather   Lemgo   Past weeks

Flag for Germany Past Weather in Lemgo, North Rhine-Westphalia, Germany — Yesterday and Last 2 Weeks

Now
28 °F

Passing clouds.


Feels Like: 28 °F
Forecast: 26 / 36 °F
Wind: 2 mph from Northeast

Location: Bueckeburg

Current Time: Jan 20, 2017 at 8:43:39 am

Latest Report: Jan 20, 2017 at 7:20 am


Visibility: N/A

Pressure: 30.60 "Hg

Humidity: 93%

Dew Point: 27 °F

Location of LemgoLocation

Past Weather in Lemgo — Graph

°F

Lemgo Temperature Yesterday

Maximum temperature yesterday: 36 °F (at 2:20 pm)
Minimum temperature yesterday: 25 °F (at 3:20 am)
Average temperature yesterday: 29 °F

High & Low Weather Summary for the Past Weeks

 TemperatureHumidityPressure
High43 °F (Jan 11, 2:07 pm)100% (Jan 7, 5:20 pm)30.77 "Hg (Jan 7, 5:20 pm)
Low14 °F (Jan 6, 8:20 am)52% (Jan 19, 2:20 pm)28.91 "Hg (Jan 13, 4:20 am)
Average31 °F87%30.15 "Hg
* Reported Jan 5 7:20 am — Jan 20 7:20 am, Lemgo, Weather by CustomWeather, © 2017

Note: Actual official high and low records may vary slightly from our data, if they occured in-between our weather recording intervals... More about our weather records

Advertising

Lemgo Weather History for the Previous 24 Hours

Scroll right to see more
 ConditionsComfort  
Time TempWeatherWind HumidityBarometerVisibility
7:20 am
Fri, Jan 20
28 °FPassing clouds.2 mph93%30.60 "HgN/A
6:20 am28 °FPassing clouds.1 mph93%30.60 "HgN/A
5:20 am28 °FPassing clouds.1 mph93%30.60 "HgN/A
4:20 am28 °FPassing clouds.No wind86%30.60 "HgN/A
3:20 am28 °FPassing clouds.No wind86%30.60 "HgN/A
2:20 am28 °FPassing clouds.2 mph86%30.60 "HgN/A
1:20 am28 °FPassing clouds.1 mph86%30.63 "HgN/A
12:20 am28 °FPassing clouds.3 mph86%30.63 "HgN/A
11:20 pm
Thu, Jan 19
28 °FPassing clouds.2 mph86%30.63 "HgN/A
10:20 pm27 °FPassing clouds.2 mph86%30.63 "HgN/A
9:20 pm27 °FPassing clouds.2 mph93%30.66 "HgN/A
8:20 pm28 °FPassing clouds.3 mph86%30.63 "HgN/A
7:20 pm28 °FPassing clouds.5 mph86%30.63 "HgN/A
6:20 pm28 °FPassing clouds.3 mph93%30.63 "HgN/A
5:20 pm28 °FPassing clouds.3 mph80%30.63 "HgN/A
4:20 pm36 °FPassing clouds.2 mph56%30.63 "HgN/A
3:20 pm36 °FPassing clouds.2 mph56%30.63 "HgN/A
2:20 pm36 °FPassing clouds.3 mph52%30.63 "HgN/A
1:20 pm34 °FScattered clouds.1 mph60%30.66 "HgN/A
12:20 pm34 °FScattered clouds.3 mph60%30.66 "HgN/A
11:20 am32 °FScattered clouds.1 mph75%30.66 "HgN/A
10:20 am30 °FPartly sunny.5 mph75%30.69 "HgN/A
9:20 am28 °FPartly sunny.3 mph80%30.66 "HgN/A
8:20 am27 °FPassing clouds.3 mph86%30.66 "HgN/A
Weather by CustomWeather, © 2017

See weather overviewHow to use our weather pages